Temp
12 13 14 15 16 16 16 15 15 15 14 13 14 14 13 13 11 11 11 10 10 10 10 9 9 8 8 9 9 10 9 9 8 8 8 8 7 7 7 8 7 7 8 8
13 13 14 15 15 15 15 15 16 16 14 13 14 14 14 14 13 12 11 11 11 10 10 9 9 9 8 8 9 10 9 9 9 8 8 8 7 7 7 7 7 7 8 8
14 15 15 15 15 14 15 15 16 16 15 15 14 15 15 15 14 13 12 11 11 10 10 10 9 9 9 8 9 9 9 9 9 9 9 8 8 7 7 7 7 8 8 8
15 14 15 14 15 15 16 16 16 15 15 16 14 17 16 16 15 14 13 12 12 10 10 11 10 9 9 8 9 10 10 9 9 9 9 9 8 8 7 7 7 8 8 9
15 14 14 15 15 15 15 16 15 15 15 16 17 17 18 16 16 15 14 13 12 12 11 11 11 10 10 9 9 10 10 10 9 9 9 8 9 9 7 7 7 8 9 9
14 15 14 14 15 14 15 15 15 15 16 18 18 18 19 18 17 16 16 15 14 13 12 11 11 10 9 9 10 10 10 10 10 10 9 9 8 8 8 7 6 8 8 9
15 14 14 14 14 15 15 15 16 17 18 19 19 18 18 18 17 17 16 16 15 13 12 12 11 11 9 9 11 11 10 10 10 9 9 9 9 9 9 8 8 8 7 7
17 18 16 15 15 16 15 16 17 18 20 20 18 18 18 17 17 16 16 15 15 14 13 12 11 11 10 9 11 11 11 10 10 10 9 9 9 9 9 9 9 9 9 9
17 17 16 16 15 15 16 15 16 17 18 19 19 19 18 18 17 17 17 15 14 14 13 12 11 10 10 9 11 11 11 10 10 10 9 9 10 10 9 9 9 9 10 8
15 16 16 16 15 15 15 16 17 17 17 17 19 19 19 17 17 17 17 16 14 14 13 12 11 10 10 9 10 11 11 10 10 9 9 9 9 9 9 9 9 9 9 9
15 15 16 16 15 16 16 15 16 17 17 18 19 19 18 17 16 16 16 15 15 13 13 13 11 10 9 9 9 11 11 10 9 9 10 8 9 9 9 9 9 9 9 9
15 16 16 16 17 16 16 16 16 17 17 17 18 18 18 17 17 16 15 15 14 13 12 12 11 9 10 11 11 11 11 10 10 9 9 9 9 10 9 10 9 9 9 9
15 15 16 16 17 17 17 17 17 17 18 18 18 18 17 17 16 16 15 14 14 14 14 13 11 10 10 11 11 11 10 10 10 9 9 9 9 9 10 10 9 9 9 9
13 14 16 17 17 15 16 16 16 17 17 17 18 17 18 17 16 16 15 14 13 14 14 13 10 11 12 12 12 11 11 10 10 10 9 10 10 10 10 10 9 9 9 9
12 13 14 15 16 16 14 13 15 16 17 17 17 18 17 15 17 17 16 14 13 14 14 13 12 13 12 12 11 11 11 11 10 10 10 10 10 10 10 9 9 10 10 9
11 12 13 14 14 15 16 16 16 16 16 16 16 16 16 16 16 16 16 15 13 13 14 14 13 12 12 12 12 11 11 11 11 10 10 10 10 10 10 10 10 10 10 9
9 10 12 13 13 14 15 15 15 16 16 16 16 16 16 16 16 16 16 15 13 12 13 14 13 13 13 13 12 12 12 11 11 11 10 10 10 10 10 10 10 10 10 9
9 9 10 11 12 13 14 15 15 15 16 16 16 16 15 15 15 15 15 15 13 12 12 13 13 13 13 12 12 12 12 11 11 11 11 11 11 11 11 11 11 10 10 10
9 9 10 10 11 12 13 14 14 14 15 15 15 15 16 15 15 15 15 15 14 13 12 13 13 13 12 12 12 11 11 11 11 11 11 11 11 11 11 11 11 11 10 10
9 9 9 10 11 12 12 13 12 12 13 13 13 14 14 13 14 12 14 14 14 13 12 12 13 13 12 12 11 12 12 11 11 10 10 10 11 11 11 11 11 10 10 10
9 9 9 10 10 11 11 11 10 10 11 10 12 12 13 12 13 12 13 14 14 13 12 14 13 13 12 12 12 12 11 11 10 10 10 10 10 10 10 10 10 10 10 10
8 9 9 10 10 11 9 10 10 9 9 8 8 11 12 12 10 12 12 13 14 14 13 14 14 13 12 12 12 12 11 11 10 10 10 10 10 10 10 10 10 10 10 10
7 8 8 8 7 8 6 6 7 7 7 7 7 8 11 11 10 12 12 11 12 13 13 13 13 13 12 12 12 12 11 11 11 10 10 10 10 10 10 10 10 10 10 9
7 6 6 6 7 7 5 5 6 5 5 5 6 8 9 9 10 11 11 10 11 13 13 13 12 12 12 11 12 11 11 11 11 11 10 10 10 9 9 9 9 9 9 9
4 4 4 4 4 5 5 5 5 5 5 6 7 8 8 8 7 8 10 12 12 12 12 12 12 12 12 12 12 11 11 11 10 10 10 10 10 9 9 9 9 9 9 8
3 4 4 4 4 4 4 4 3 3 4 4 4 6 7 8 8 8 9 11 11 12 12 12 12 13 12 11 11 11 11 10 10 10 10 10 9 9 9 9 9 9 9 8
Height
3176 3178 3176 3176 3176 3175 3174 3176 3176 3175 3175 3175 3173 3172 3172 3172 3171 3172 3172 3171 3175 3178 3181 3182 3184 3185 3185 3182 3182 3183 3184 3183 3184 3187 3189 3192 3196 3199 3202 3206 3209 3212 3215 3218
3176 3173 3174 3174 3174 3174 3175 3175 3173 3172 3173 3172 3171 3169 3168 3169 3168 3168 3169 3172 3173 3174 3178 3179 3181 3185 3185 3181 3182 3183 3184 3184 3185 3187 3190 3192 3196 3199 3203 3205 3208 3210 3213 3217
3170 3171 3170 3172 3172 3173 3173 3172 3170 3171 3170 3168 3166 3162 3162 3164 3165 3166 3167 3168 3170 3170 3171 3175 3178 3181 3183 3181 3181 3182 3183 3185 3186 3187 3189 3192 3195 3197 3201 3204 3206 3209 3212 3215
3167 3168 3168 3169 3169 3171 3168 3169 3169 3170 3169 3163 3161 3158 3154 3158 3161 3163 3163 3163 3166 3165 3169 3174 3177 3178 3181 3180 3179 3181 3182 3184 3186 3188 3189 3192 3195 3198 3200 3202 3205 3208 3211 3214
3164 3164 3165 3165 3167 3167 3167 3167 3168 3168 3166 3162 3155 3155 3151 3156 3157 3157 3158 3159 3161 3164 3164 3168 3172 3176 3179 3178 3176 3179 3181 3182 3184 3187 3189 3192 3193 3196 3199 3201 3204 3206 3209 3212
3160 3161 3161 3161 3162 3163 3165 3166 3166 3165 3161 3154 3148 3148 3145 3148 3153 3154 3156 3156 3156 3159 3163 3164 3168 3172 3174 3174 3174 3176 3178 3181 3183 3185 3188 3190 3193 3194 3198 3201 3203 3204 3207 3209
3156 3156 3157 3158 3158 3159 3162 3163 3159 3155 3148 3142 3142 3148 3148 3148 3149 3151 3152 3153 3153 3153 3156 3160 3164 3167 3169 3169 3170 3173 3176 3178 3181 3183 3185 3188 3191 3194 3195 3198 3201 3203 3206 3207
3149 3146 3149 3153 3154 3155 3157 3157 3151 3144 3138 3136 3142 3144 3144 3145 3146 3148 3148 3149 3149 3150 3152 3155 3159 3164 3165 3167 3167 3171 3174 3176 3179 3181 3183 3186 3188 3190 3193 3195 3198 3201 3202 3204
3147 3146 3147 3150 3151 3153 3152 3153 3153 3148 3145 3142 3138 3138 3140 3140 3143 3144 3144 3145 3146 3147 3149 3151 3154 3158 3161 3163 3164 3169 3172 3174 3177 3180 3182 3185 3187 3189 3190 3192 3195 3197 3201 3199
3149 3147 3145 3146 3148 3149 3149 3149 3149 3147 3146 3141 3134 3134 3133 3138 3142 3142 3143 3142 3143 3144 3146 3148 3151 3153 3156 3160 3161 3166 3170 3172 3176 3177 3179 3182 3185 3186 3188 3189 3191 3193 3195 3198
3146 3147 3144 3142 3144 3142 3145 3146 3146 3144 3142 3138 3133 3129 3131 3136 3140 3142 3141 3141 3141 3142 3142 3145 3146 3147 3151 3155 3158 3162 3167 3170 3172 3174 3175 3175 3177 3182 3185 3186 3188 3189 3191 3193
3142 3141 3137 3136 3136 3137 3138 3138 3141 3141 3140 3137 3135 3133 3131 3134 3137 3139 3140 3139 3139 3139 3138 3140 3142 3142 3144 3149 3154 3158 3163 3167 3169 3171 3172 3173 3176 3179 3181 3182 3184 3186 3188 3189
3139 3135 3134 3132 3131 3129 3129 3132 3133 3133 3131 3130 3132 3129 3132 3132 3134 3135 3136 3136 3134 3135 3135 3135 3138 3140 3141 3145 3150 3156 3160 3163 3165 3167 3169 3171 3173 3176 3178 3179 3180 3182 3183 3184
3135 3132 3129 3124 3121 3124 3124 3129 3129 3129 3129 3127 3125 3127 3126 3128 3131 3132 3131 3134 3132 3132 3132 3133 3134 3136 3139 3144 3148 3153 3156 3159 3162 3164 3165 3167 3169 3172 3174 3176 3176 3177 3179 3180
3132 3128 3127 3124 3121 3121 3122 3129 3126 3122 3122 3122 3121 3121 3124 3129 3126 3127 3127 3130 3130 3130 3130 3131 3133 3135 3138 3142 3146 3150 3154 3156 3158 3161 3162 3165 3166 3168 3169 3171 3172 3173 3176 3176
3125 3121 3122 3117 3118 3117 3115 3116 3118 3117 3118 3120 3121 3119 3122 3123 3124 3125 3125 3127 3128 3127 3129 3130 3132 3135 3138 3141 3145 3148 3150 3153 3155 3157 3159 3161 3162 3163 3165 3166 3168 3169 3170 3172
3121 3120 3117 3107 3114 3112 3108 3111 3111 3111 3112 3113 3113 3115 3118 3119 3120 3120 3121 3123 3124 3125 3127 3129 3132 3135 3137 3140 3143 3146 3148 3150 3151 3152 3154 3155 3157 3158 3160 3161 3162 3163 3165 3166
3113 3114 3114 3107 3111 3100 3100 3106 3106 3105 3105 3107 3108 3108 3110 3115 3116 3115 3114 3115 3118 3122 3124 3127 3130 3132 3135 3138 3140 3142 3144 3146 3146 3147 3149 3150 3152 3153 3155 3156 3156 3157 3159 3160
3105 3106 3105 3103 3100 3095 3097 3101 3102 3100 3098 3101 3104 3105 3107 3107 3106 3108 3100 3110 3111 3117 3121 3124 3127 3130 3132 3135 3137 3139 3140 3140 3140 3142 3144 3146 3147 3149 3150 3151 3151 3152 3152 3154
3096 3098 3099 3097 3092 3086 3093 3097 3093 3093 3089 3098 3100 3101 3101 3096 3098 3092 3098 3105 3107 3113 3117 3120 3123 3126 3130 3132 3134 3135 3136 3136 3137 3139 3141 3142 3144 3145 3146 3147 3147 3146 3147 3147
3090 3090 3088 3088 3085 3082 3090 3090 3092 3094 3096 3090 3091 3092 3093 3093 3095 3093 3092 3099 3106 3111 3113 3116 3118 3121 3125 3128 3131 3132 3132 3133 3135 3136 3138 3139 3141 3142 3142 3143 3143 3143 3143 3143
3087 3086 3081 3081 3079 3074 3080 3081 3087 3084 3083 3083 3084 3084 3086 3086 3086 3093 3097 3099 3104 3107 3108 3111 3113 3117 3120 3124 3127 3129 3131 3132 3132 3134 3135 3136 3138 3139 3140 3140 3140 3140 3139 3139
3082 3082 3079 3079 3074 3073 3075 3077 3078 3076 3076 3077 3077 3079 3080 3081 3083 3090 3092 3096 3099 3102 3104 3106 3107 3111 3115 3120 3123 3126 3128 3129 3130 3132 3133 3135 3135 3136 3136 3136 3136 3136 3136 3136
3076 3077 3074 3073 3072 3074 3069 3070 3072 3072 3075 3071 3073 3074 3076 3077 3078 3080 3089 3095 3095 3097 3099 3101 3102 3105 3110 3114 3118 3122 3124 3127 3128 3129 3130 3131 3132 3133 3133 3133 3133 3132 3131 3131
3073 3070 3069 3066 3067 3067 3065 3065 3067 3066 3067 3068 3067 3069 3071 3073 3076 3078 3082 3087 3088 3091 3094 3096 3097 3100 3105 3109 3113 3116 3119 3122 3123 3124 3125 3127 3128 3129 3130 3129 3128 3127 3127 3127
3067 3065 3064 3060 3062 3061 3059 3060 3055 3036 3059 3062 3062 3065 3066 3069 3071 3075 3077 3079 3082 3085 3088 3091 3092 3095 3100 3104 3109 3112 3114 3116 3119 3120 3122 3122 3123 3124 3124 3124 3123 3122 3122 3123
Wind_Speed
13 16 18 13 15 13 12 9 10 8 7 6 6 8 7 9 12 13 16 17 19 21 20 19 15 15 13 10 9 7 6 8 13 18 19 24 23 23 25 24 18 19 19 18
17 20 17 15 14 14 13 14 13 8 7 7 9 11 11 11 13 15 18 21 20 21 21 22 19 17 15 13 13 13 10 10 12 14 16 19 20 21 21 23 23 21 20 22
21 17 9 18 17 16 16 15 14 11 13 15 14 17 12 12 12 14 17 17 21 26 23 24 19 20 17 19 14 16 15 11 11 14 16 18 21 17 19 16 19 22 18 20
20 19 19 14 16 17 19 13 12 12 14 17 6 12 10 10 9 13 14 19 19 23 23 26 24 23 19 21 16 17 18 17 14 13 14 15 16 18 16 18 17 19 18 19
19 14 19 23 18 12 17 13 10 12 15 16 17 12 5 8 9 10 13 14 20 23 23 28 26 24 22 22 20 18 17 19 18 16 14 13 15 15 15 17 16 18 18 19
20 15 17 17 18 21 16 15 15 14 16 18 17 17 6 8 7 4 5 10 16 23 25 27 27 25 24 25 20 21 19 17 17 18 18 17 15 17 16 17 15 17 17 19
16 19 21 15 13 16 18 16 19 16 15 11 4 4 14 16 12 12 8 9 14 21 26 27 31 29 27 27 22 20 20 19 17 18 19 20 19 17 19 20 20 14 13 13
13 16 18 17 17 15 20 20 20 11 9 11 1 6 9 7 7 10 11 9 13 18 24 28 31 31 29 29 25 21 20 19 18 18 16 18 21 21 20 19 19 19 21 14
15 10 5 11 17 19 19 21 19 23 20 19 22 12 12 11 8 9 10 8 12 15 22 28 30 32 32 32 27 24 20 18 17 16 16 14 15 19 23 22 22 21 22 20
19 18 12 6 11 20 24 16 15 20 13 15 17 15 11 6 5 4 6 7 11 13 18 25 30 32 33 31 29 27 24 19 16 15 14 18 24 22 22 23 24 24 24 23
19 21 20 11 14 18 21 25 23 19 15 13 12 9 3 6 7 5 5 4 8 11 15 23 28 32 33 32 33 30 25 24 22 21 16 24 20 22 23 21 22 25 25 24
20 22 25 25 21 15 22 21 21 25 21 22 13 17 8 5 9 6 4 5 9 9 12 20 26 30 33 35 33 30 26 24 20 18 15 12 17 22 22 21 21 20 22 24
19 26 27 25 23 24 24 24 23 23 24 20 14 15 4 3 8 10 5 7 10 7 7 12 25 28 30 31 35 28 26 25 22 22 20 18 18 22 21 18 20 20 21 22
22 24 25 29 27 9 12 20 27 26 28 27 23 21 16 8 7 9 9 10 10 11 6 11 21 27 26 29 32 31 27 28 27 25 25 24 22 20 19 21 21 21 22 23
22 29 30 33 34 22 19 23 20 26 28 24 28 24 11 15 10 9 10 9 12 12 5 13 18 19 21 29 31 29 28 28 27 24 22 22 21 21 22 23 25 23 21 21
20 30 30 36 34 35 35 31 31 29 27 27 28 30 26 24 11 13 9 11 15 16 8 11 16 18 19 22 24 23 22 23 25 25 26 27 27 26 25 25 26 26 26 25
21 24 28 36 32 35 39 36 32 31 30 30 32 29 22 25 21 17 13 14 16 19 16 12 13 14 15 15 16 16 17 20 24 26 27 27 27 28 28 27 26 27 27 27
32 29 27 36 32 27 38 32 33 34 35 32 32 28 17 19 21 21 21 17 17 20 21 20 21 19 17 16 15 16 15 17 20 24 25 24 24 24 25 25 25 25 28 28
31 34 34 35 36 38 32 26 26 33 35 30 28 27 26 22 24 22 22 17 16 19 20 23 23 23 22 18 15 14 14 17 17 18 19 20 20 19 20 21 23 25 27 29
20 31 35 34 33 30 36 29 20 19 28 24 24 26 26 21 29 28 17 14 12 16 20 22 25 24 21 19 15 12 12 12 13 13 14 14 15 15 15 16 15 15 15 17
21 18 31 36 37 41 35 31 18 19 23 11 22 25 30 11 19 16 12 17 14 15 16 17 25 24 22 19 14 10 8 8 10 12 13 13 14 13 13 13 12 11 11 11
22 24 28 28 32 39 20 21 30 31 22 9 9 21 25 26 31 19 17 16 19 16 16 16 17 26 25 21 14 8 7 5 8 10 11 10 10 11 10 9 10 10 10 11
22 23 29 27 21 31 24 17 14 20 9 16 12 13 17 18 26 38 31 15 18 18 19 20 21 28 28 23 17 10 6 4 4 7 9 10 9 8 8 10 11 12 12 12
21 20 26 27 29 26 17 21 24 12 21 10 18 23 25 20 19 32 36 22 18 21 20 19 20 29 31 28 21 15 9 5 2 2 6 8 10 10 10 12 13 13 14 14
23 24 23 27 24 26 29 29 31 22 21 20 26 29 25 20 13 18 28 34 24 22 20 15 23 29 34 31 26 20 15 10 6 3 5 8 11 12 12 15 15 16 15 15
23 24 27 31 26 28 28 26 21 18 12 12 13 20 29 23 19 16 19 25 24 22 22 21 21 29 37 34 29 24 20 16 11 7 8 9 11 12 14 16 18 15 14 14
Wind_Direction
237 229 233 238 240 263 290 275 273 284 288 302 280 273 261 244 228 216 223 222 210 206 211 212 214 219 220 219 195 168 156 154 165 180 187 190 198 197 197 203 204 198 190 193
226 236 241 240 246 262 262 264 261 273 281 280 278 271 253 236 234 222 215 210 222 202 209 208 216 216 223 227 199 181 165 154 155 175 183 186 188 203 203 214 214 212 216 205
231 231 249 241 249 254 257 257 263 284 289 282 268 274 238 223 227 227 222 220 221 221 199 211 213 211 218 236 208 193 186 177 171 162 171 182 185 190 208 207 219 197 203 204
236 241 248 252 247 246 255 250 256 277 283 286 253 289 255 215 221 227 226 221 218 225 203 212 209 215 217 230 213 203 197 195 189 184 180 182 190 193 196 188 196 199 213 212
238 247 240 246 245 241 250 246 257 270 276 272 262 235 180 230 214 233 233 231 222 217 221 208 209 212 208 223 219 208 202 201 200 199 196 193 194 200 202 203 203 205 207 213
244 237 243 247 247 242 243 248 253 258 262 264 254 241 266 222 224 226 261 251 231 216 216 214 211 208 206 212 217 215 207 203 201 206 206 204 204 197 198 199 216 209 221 219
247 247 243 252 247 232 222 224 234 232 228 252 147 276 289 274 254 267 259 256 233 215 210 210 206 206 205 207 219 215 207 205 201 203 206 208 206 214 204 213 200 221 210 234
254 248 222 233 230 217 221 222 241 252 276 311 202 260 267 280 243 245 265 266 224 209 210 205 204 205 206 211 222 217 201 200 201 203 202 208 211 214 219 216 218 220 213 224
284 231 195 244 236 222 218 224 243 275 278 271 270 267 295 266 227 250 257 239 205 203 207 205 205 207 207 209 219 218 202 205 208 209 206 219 218 227 226 227 224 226 218 256
246 268 269 271 239 234 231 231 234 236 259 261 259 267 245 194 252 275 286 249 214 205 204 210 205 206 204 209 216 215 210 221 222 217 245 232 239 239 232 228 233 231 231 222
243 250 262 235 244 242 220 240 244 266 283 301 283 300 91 199 226 258 291 251 227 217 210 205 204 206 202 204 211 219 222 219 219 232 256 233 234 225 231 232 235 237 238 242
241 249 248 248 250 240 234 229 231 237 240 246 280 284 295 238 229 248 276 235 215 216 214 200 206 208 209 210 213 219 217 221 226 231 225 227 231 226 232 235 236 237 241 244
241 246 254 259 257 240 225 233 241 245 246 268 280 286 255 233 243 240 247 224 246 241 285 212 196 200 211 215 215 212 215 222 223 226 229 225 231 231 237 245 247 240 242 243
247 247 248 256 258 326 255 252 244 241 244 252 246 259 280 244 278 250 241 223 236 246 259 213 196 201 214 213 215 214 221 225 229 230 233 240 243 245 245 249 255 252 249 249
242 250 255 259 260 260 223 239 254 247 249 263 267 267 289 284 273 266 231 221 215 224 217 209 209 213 214 214 219 221 222 230 230 229 234 241 248 252 255 252 252 257 258 258
248 257 257 262 259 258 264 257 251 254 257 254 260 269 264 270 275 258 242 230 213 207 196 193 203 206 209 211 214 220 224 228 230 239 245 246 248 252 254 259 257 256 258 257
258 265 264 262 258 260 257 253 258 258 259 256 259 255 258 265 261 259 238 230 211 202 203 183 179 181 184 193 204 213 225 234 239 240 241 243 245 249 251 257 258 255 256 258
258 258 257 262 264 261 253 254 257 258 258 256 256 266 250 248 255 257 228 215 209 200 200 201 191 195 197 202 209 219 234 246 248 244 241 242 243 242 247 250 254 255 253 256
248 251 255 254 256 260 259 253 257 260 256 257 253 256 257 243 250 244 218 199 204 199 208 220 219 212 211 215 222 235 260 261 246 240 236 235 238 241 245 250 254 255 255 256
253 244 246 249 251 254 258 256 276 283 260 254 262 255 263 237 229 248 191 205 190 202 200 208 219 226 220 219 221 247 265 240 229 224 227 234 240 242 245 249 249 249 249 249
264 249 243 249 252 256 258 257 273 260 258 261 238 238 241 254 232 204 187 231 220 203 212 231 223 218 215 213 219 250 233 217 223 227 229 230 232 235 238 242 245 246 247 250
261 262 255 255 263 254 273 248 258 255 262 264 279 250 243 238 214 231 219 218 231 233 230 250 257 222 205 202 210 223 214 235 235 226 222 221 223 229 233 240 247 248 253 257
260 258 265 263 258 264 278 256 266 242 282 243 265 268 264 254 218 220 249 226 220 230 236 255 244 220 200 194 196 203 194 197 209 217 225 229 234 241 253 262 266 263 257 257
262 268 265 268 262 269 271 246 238 261 237 246 249 265 268 272 248 221 236 232 218 222 237 243 234 211 202 195 198 197 198 198 174 222 239 244 247 251 264 272 267 266 263 258
258 273 270 272 266 271 260 275 252 240 244 258 255 260 258 251 251 228 216 231 208 211 217 231 228 222 206 201 204 202 209 225 233 236 251 252 254 258 268 276 280 275 265 252
262 264 264 267 266 264 262 264 259 224 240 267 265 263 251 245 239 219 212 209 209 212 222 231 243 230 212 206 207 209 211 224 238 264 284 261 256 264 273 279 281 263 250 249